Volver al catálogo

STARLINK-37802

ActivoComunicacionesSSO
NORAD 69318·PAYLOAD·🇺🇸 United States

Lanzado May 30, 2026 desde Vandenberg Space Force Base

Loading…

Próximos Pases (próximas 24 horas)

TLE

ActualizadoSource: CelesTrak SupGP

Época: Sep 14, 2026, 22:32 UTC

1 69318C 26119Y   26257.93937500  .00053534  00000+0  16621-2 0  2578
2 69318  97.2828 282.8293 0001352  88.7765 356.0276 15.33406611    11

Sigue STARLINK-37802 en tiempo real con AllMySat

Download on the App Store